Tracking 29510 objects as of 16-Sep-2024
HD Live streaming from Space Station
objects crossing your sky now

FENGYUN 1C DEB

Track FENGYUN 1C DEB now!
10-day predictions


NORAD ID: 30287
Int'l Code: 1999-025YY
Perigee: 707.6 km
Apogee: 1,333.6 km
Inclination: 98.7 °
Period: 105.4 minutes
Semi major axis: 7391 km
RCS: 0.0604 m2 (small)
Launch date: May 10, 1999
Source: People's Republic of China (PRC)
Launch site: Taiyaun Space Center, China (TSC)

Note: This is SATELLITE DEBRIS
Your satellite tracking list
Your tracking list is empty




NASA's NSSDC Master Catalog

Two Line Element Set (TLE):
1 30287U 99025YY  24260.44889229  .00006784  00000-0  44532-2 0  9990
2 30287  98.6893 333.8903 0423462 131.5498 247.7756 13.66142521876769
Source of the keplerian elements: AFSPC